Back to catalog

STARLINK-36530

AliveCommunicationsVLEO
NORAD 67514·PAYLOAD·🇺🇸 United States

Launched Jan 18, 2026 from Cape Canaveral Space Force Station

Loading…

Next Passes (next 24 hours)

TLE

FreshSource: CelesTrak SupGP

Epoch: Sep 15, 2026, 03:30 UTC

1 67514C 26012X   26258.14631944  .00040078  00000+0  14512-2 0  2580
2 67514  43.0011 324.5018 0001511 265.6421 186.6926 15.27567150    19

Track STARLINK-36530 in real time with AllMySat

Download on the App Store